Preview of NWS' New Version of Forecast
This preview is not operational and should not be used for support decisions.

Regional Weather Roundup (RWR)

Issued by National Weather Service (NWS)

                            
000
ASUS44 KMEG 212110
RWRTN 
TENNESSEE HOURLY STATE WEATHER ROUNDUP
NATIONAL WEATHER SERVICE MEMPHIS TN
400 PM CDT SUN JUL 21 2019

TNZ002-004-019-021-049-052-054-088>092-212200-
WEST TENNESSEE
  
CITY           SKY/WX    TMP DP  RH WIND       PRES   REMARKS
MEMPHIS INTL   PTSUNNY   83  74  74 SE9       29.96F                  
NWS MEMPHIS      N/A     80 N/A N/A MISG        N/A                   
JACKSON        FAIR      88  78  72 VRB6      29.97F HX 101           
DYERSBURG      FAIR      88  78  72 SE9       29.95F HX 101           
SOMERVILLE     SUNNY     79  73  83 S5        29.96F                  
COVINGTON      SUNNY     82  75  78 S7        29.95F                  
UNION CITY     SUNNY     91  77  62 S13       29.91F HX 105           
BOLIVAR        SUNNY     88  77  70 SW6       29.96F HX 100           
PARIS          PTSUNNY   88  79  74 S9        29.95F HX 102           
HUNTINGDON     MOSUNNY   88  77  70 S8        29.95F HX 100           
LEXINGTON      MOSUNNY   88  75  66 SW9       29.96F HX  97           
SELMER         SUNNY     86  77  74 VRB6      29.97F HX  97           
SAVANNAH       MOSUNNY   88  79  74 VRB5G12   29.96F HX 102           
$$

TNZ008-025-027-028-033-062-065-066-212200-
NORTH MIDDLE TENNESSEE
  
CITY           SKY/WX    TMP DP  RH WIND       PRES   REMARKS
NASHVILLE      PTSUNNY   86  74  67 SW6       29.98F HX  94           
PORTLAND       MOSUNNY   86  75  70 S12       29.97F HX  95           
CLARKSVILLE    FAIR      86  76  71 S10       29.94F HX  96           
LEBANON        PTCLDY    86  75  70 SW6G12    29.96F HX  95           
SMYRNA         PTSUNNY   86  76  71 S7        29.98F THUNDER HX  96   
MURFREESBORO   MOCLDY    88  73  62 SW7G14    29.96F HX  96           
COOKEVILLE     MOSUNNY   84  75  74 W5        30.00F HX  92           
LIVINGSTON     FOG       73  72  94 S7G16     30.04R VSB 0            
GALLATIN       PTCLDY    86  75  70 VRB5G13   29.99F HX  95           
CROSSVILLE     FAIR      75  69  81 W5        30.07F                  
ROCKWOOD       PTCLDY    81  73  78 CALM      30.05S                  
$$

TNZ061-075-076-078-094-096-097-212200-
SOUTH MIDDLE TENNESSEE
  
CITY           SKY/WX    TMP DP  RH WIND       PRES   REMARKS
LAWRENCEBURG   PTCLDY    84  75  74 SE8       30.00F HX  92           
LEWISBURG      PTCLDY    88  73  62 SW10      29.98F HX  96           
FAYETTEVILLE   PTSUNNY   82  73  74 S8G16     30.01R                  
TULLAHOMA      MOSUNNY   86  72  62 S7        30.00F HX  92           
WINCHESTER     MOSUNNY   84  73  70 SE7       30.00F HX  91           
MCMINNVILLE    MOSUNNY   82  73  74 SW5       30.00S                  
COLUMBIA       MOSUNNY   84  77  79 S7        29.96F HX  94           
SHELBYVILLE    CLOUDY    84  75  74 CALM      29.99F HX  92           
$$

TNZ017-018-042-046-047-212200-
NORTHEAST TENNESSEE
  
CITY           SKY/WX    TMP DP  RH WIND       PRES   REMARKS
TRI CITIES     FAIR      89  70  53 SW12      30.03R HX  94           
ELIZABETHTON   FAIR      88  70  55 W7        30.02S HX  92           
GREENEVILLE    PTCLDY    86  72  62 VRB5      30.03S HX  92           
$$

TNZ012-013-036-069-073-074-212200-
CENTRAL EAST TENNESSEE
  
CITY           SKY/WX    TMP DP  RH WIND       PRES   REMARKS
KNOXVILLE      FAIR      89  69  51 SW13      29.99F HX  93           
OAK RIDGE      FAIR      87  71  58 VRB6      30.02S HX  93           
DOWNTOWN KNOXV MOSUNNY   90  73  58 VRB5G15   29.98F HX  98           
GATLINBURG     PTSUNNY   90  72  55 SW10G17   29.99S HX  96           
MORRISTOWN     PTSUNNY   88  70  55 W7G14     30.01S HX  92           
JACKSBORO      MOSUNNY   81  75  83 CALM      30.04F                  
$$

TNZ083-085-099-212200-
SOUTHEAST TENNESSEE
  
CITY           SKY/WX    TMP DP  RH WIND       PRES   REMARKS
CHATTANOOGA    PTSUNNY   90  70  51 SW7       29.99F HX  95           
DAYTON         CLEAR     90  72  55 VRB7G14   29.98F HX  96           
$$

SKY/WX REPORTED AS FAIR MEANS FEW OR NO CLOUDS BELOW
12 THOUSAND FEET.